STARLINK-36055, 66846

Orbit data source: Space-Track

STARLINK-36055, 66846 is a payload satellite owned by SpaceX/Seattle (US) in LEO that was launched on Tue, 02 Dec 2025 UTC via an FALCON 9 launch vehicle from the Air Force Western Test Range (AFWTR). Payload-class satellites include a variety of spacecraft equipped with specific instruments for various scientific and technological missions. These include communications satellites like Starlink; space stations such as the ISS; scientific satellites like the Hubble; Earth observation satellites from companies like Planet Labs, Umbra, and HawkEye 360; GPS; miniature CubeSats for education and research; and military/defense satellites.

Loading next visibility...
Identifier
66846, 2025-280AB
Orbit
LEO
Country
Flag of USUS
Related business
Manufacturer
SpaceX/Seattle
Mission
Operational Commercial Communications
Bus & Motor
STARLINK V2MO, Unknown motor
Mass
575 kg wet, ~530 kg dry
Launch date (UTC)
2025-12-02 (7 months ago)
Launch vehicle
FALCON 9
Launch site
Air Force Western Test Range (AFWTR)
Object type
Payload
Rocket body
Debris
Shape & HBR
Box + 2 Pan, 17.7 m
Radar Cross Section
36.964 m², Large (>1 m²)

Expand to show TLE details & history
Last TLE update: 22 hours ago

TLE from 22 hours ago
0 STARLINK-36055
1 66846U 25280AB  26170.97000804  .00004449  00000-0  38030-3 0  9999
2 66846  70.0013  76.6910 0002867 262.9535  97.1299 14.98340525 31403
Epoch: 2026-06-19T23:16Z
TLE epoch observation values (Epoch: 2026-06-19T23:16:48.694Z)
Latitude
0.00005°
Longitude
179.29678°
Altitude
574.695 km
Speed
7.574 km/s
True Right ascension
05h 06m 45s
True Declination
0° 00' 00"
Sunlit
Object was in daylight at epoch
Visualization orbit readout
Latitude
Unknown
Longitude
Unknown
Altitude
Unknown
Speed
Unknown
Apparent Right ascension
Unknown
Apparent Declination
Unknown
Sunlit
N/A
Visualization observer readout
Local Sidereal Time
08:32:18
Azimuth
Unknown
Elevation
Unknown
Doppler factor
Unknown
Orbital elements
Apogee altitude
571.963 km
Perigee altitude
567.979 km
Semi-major axis
6,948.108 km
Eccentricity
0.00029
Inclination
70.0013°
RAAN
76.691°
Arg. of periapsis
262.9535°
True anomaly
97.1625°
Mean anomaly
97.1299°
Eccentric anomaly
97.1462°
Mean motion
3.74751 °/min
Orbital period
96.06 mins
BSTAR
0.0003803
Loading maneuver chart data...
Computing Atmospheric mass density...
Loading historical data...
Loading historical data...
Loading historical data...
Loading historical data...
Loading historical data...
Loading historical data...
Loading historical data...

Documentation

Showing up to 5 results
|